Regional Weather Roundup
Issued by NWS

Home | Current Version | Previous Version | Text Only | Print | Product List | Glossary On
Versions: 1 2 3 4 5 6 7 8 9 10 11 12 13 14 15 16 17 18 19 20 21 22 23 24 25 26 27 28 29 30 31 32 33 34 35 36 37 38 39 40 41 42 43 44 45 46 47 48 49 50
000
ASUS45 KBOU 210207
RWRCO

WEATHER ROUNDUP FOR COLORADO
NATIONAL WEATHER SERVICE DENVER/BOULDER CO
800 PM MDT THU JUL 20 2017

NOTE: "FAIR" INDICATES FEW OR NO CLOUDS BELOW 12000 FEET WITH NO
SIGNIFICANT WEATHER AND/OR OBSTRUCTIONS TO VISIBILITY.

COZ001>005-013-030-031-210300-
...NORTHWEST COLORADO...

CITY           SKY/WX    TMP DP  RH WIND       PRES   REMARKS
CRAIG          FAIR      78  46  32 S12       30.17R
HAYDEN         FAIR      77  46  33 SE13      30.21S
MEEKER         LGT RAIN  69  54  58 E10G17    30.23R
RABBIT EARS PA FAIR      57  37  47 CALM      30.57R
STEAMBOAT SPGS FAIR      70  50  50 E9        30.24S
WALDEN         MOCLDY    63  43  48 SE6G18    30.36S
$$

COZ006>008-011-210300-
...WEST CENTRAL VALLEYS...

CITY           SKY/WX    TMP DP  RH WIND       PRES   REMARKS
GRAND JUNCTION FAIR      84  53  34 SE14      30.06R
MONTROSE       FAIR      76  51  41 SE15      30.19R
EAGLE          CLOUDY    77  48  35 S10       30.27R
RIFLE          FAIR      75  54  47 E6        30.17R
DELTA          FAIR      82  50  33 E3        30.15R
NUCLA          NOT AVBL
$$

COZ017>023-064>068-210300-
...SOUTHWEST COLORADO...

CITY           SKY/WX    TMP DP  RH WIND       PRES   REMARKS
DURANGO        LGT RAIN  68  53  58 N10       30.23R
CORTEZ         FAIR      71  54  54 N5        30.18R
PAGOSA SPRINGS MOCLDY    71  45  38 NW7       30.31S
TELLURIDE      RAIN      58  52  80 W6        30.53R
WOLF CREEK PAS NOT AVBL
$$

COZ009-010-012-014-032>034-037-058>063-210300-
...CENTRAL COLORADO...

CITY           SKY/WX    TMP DP  RH WIND       PRES   REMARKS
ASPEN          FAIR      62  56  80 SW6       30.37R
BUENA VISTA    FAIR      65  53  63 CALM      30.36S
COPPER MTN     CLOUDY    59  43  55 SE8       30.71R
BERTHOUD PASS  MOCLDY    46  32  57 SE7       30.74S
COTTONWOOD PAS MOCLDY    64  43  45 SW5       30.52S
GUNNISON       FAIR      69  50  50 SW3       30.33R
KREMMLING      FAIR      68  54  60 S6        30.34F
LEADVILLE      CLOUDY    58  46  64 N3        30.51R
MONARCH PASS   FAIR      54  37  54 E20       30.77F
SALIDA         MOCLDY    77  42  28 E9        30.38R
SUNLIGHT       FAIR      54  39  58 NW3       30.62R
WILKERSON PASS FAIR      57  39  51 CALM      30.67F
$$

COZ069>075-210300-
...SAN LUIS VALLEY/SANGRE DE CRISTO MOUNTAINS...

CITY           SKY/WX    TMP DP  RH WIND       PRES   REMARKS
ALAMOSA        LGT RAIN  70  52  52 E13G20    30.30R
DEL NORTE      MOCLDY    73  46  37 W10       30.31R THUNDER
LA VETA PASS   NOT AVBL
SAGUACHE         N/A    N/A N/A N/A MISG        N/A
$$

COZ035-036-038>040-210300-
...NORTHERN COLORADO FRONT RANGE...

CITY           SKY/WX    TMP DP  RH WIND       PRES   REMARKS
DENVER INTL AP MOCLDY    79  56  45 S17       30.12R
DMNS CITY PARK   N/A     79  50  37 SE7G14    30.14R
AURORA         LGT RAIN  75  58  54 S12       30.17R
FRONT RANGE AP FAIR      81  54  39 SW17G23   30.15R
ERIE MUNI ARPT FAIR      81  49  32 SW5       30.10R
BOULDER MUN AP MOCLDY    82  45  26 SW7       30.11R
CENTENNIAL     CLOUDY    75  57  53 S7        30.20R THUNDER
BROOMFIELD     FAIR      81  46  30 NW9       30.16R
FORT COLLINS   FAIR      83  51  33 SW10      30.07R
LONGMONT       FAIR      81  49  32 W5        30.10S
$$

COZ041-046-047-076>085-087-088-210300-
...PIKES PEAK/PALMER DIVIDE AND SOUTHERN FOOTHILLS...

CITY           SKY/WX    TMP DP  RH WIND       PRES   REMARKS
COLO. SPRINGS  MOCLDY    80  54  40 N16G22    30.20R
A. F. ACADEMY  FAIR      75  53  45 N10       30.23R
SCHRIEVER AFB  FAIR      77  52  41 N14G23    30.20R
CHEYENNE MTN   MOCLDY    77  46  33 NW12      30.21R
ELLICOTT       FAIR     N/A N/A N/A NE16      30.17R
FALCON           N/A     74  51  44 NW9G16    30.27R
FORT CARSON    MOCLDY    80  54  40 N15       30.15R
LIMON          TSTM      75  60  59 N14       30.11R
MONUMENT HILL  FAIR      70  54  56 N5        30.30S
CANON CITY     CLEAR     75  57  53 W9        30.11R
WALSENBURG     FAIR      81  46  30 W8        30.14R
TRINIDAD       FAIR      86  39  19 S10       30.11R
$$

COZ042>045-048>051-090-091-210300-
...NORTHEAST COLORADO...

CITY           SKY/WX    TMP DP  RH WIND       PRES   REMARKS
GREELEY ARPT   FAIR      86  57  37 SW9       30.05R
AKRON          FAIR      85  57  38 E8        30.04R
BURLINGTON     FAIR      83  64  52 SE6       30.00S
WRAY           NOT AVBL
YUMA           FAIR      81  50  34 E3        29.99R
STERLING       FAIR      82  63  51 NE7       29.97F
HOLYOKE        FAIR      81  64  57 NE7       29.97R
FORT MORGAN    FAIR      84  55  36 NE6       30.04R
$$

COZ086-089-092>099-210300-
...SOUTHEAST COLORADO...

CITY           SKY/WX    TMP DP  RH WIND       PRES   REMARKS
PUEBLO         FAIR      84  49  29 W6        30.03S
LA JUNTA       FAIR      89  59  36 E10       29.99S
LAMAR          FAIR      87  64  46 SE6       29.93S
SPRINGFIELD      N/A     82  53  36 S12       30.03R
$$



USA.gov is the U.S. government's official web portal to all federal, state and local government web resources and services.